CZ-3B DEB, 39334

Orbit data source: Space-Track

CZ-3B DEB, 39334 is space debris in HEO originally from a launch on Sat, 04 Sep 2010 UTC launched from the Xichang Space Center, China (XSC). Debris objects in space refer to the collection of defunct objects orbiting the Earth. Examples of debris include non-operational satellites, rocket bodies, and fragments generated from explosions, collisions, or faulty payload assembly.

Loading next visibility...
Identifier
39334, 2010-042F
Orbit
HEO
Last TLE update
1 day ago
Origin
Manufacturer
CALT
Mission
Spacecraft
Bus & Motor
Unknown
Mass
Unknown
Launch date (UTC)
2010-09-04 (15 years ago)
Launch vehicle
Unknown
Launch site
Xichang Space Center, China (XSC)
Object type
Payload
Rocket body
Debris
Shape & HBR
Unknown
Radar Cross Section
Medium (>0.1 m² and <1 m²)

Expand to show TLE details & history

TLE from 1 day ago
0 CZ-3B DEB
1 39334U 10042F   25128.08012221 -.00000389  00000-0  00000-0 0  9994
2 39334  26.8065 337.4875 7337857 241.4268 353.3458  1.86373905 90265
Epoch: 2025-05-08T01:55Z
Definitive object data (Epoch: 2025-05-08T01:55:22.558Z)
Latitude
-2.67407°
Longitude
-92.25547°
Altitude
2,680.849 km
Speed
8.585 km/s
True Right ascension
10h 50m 58s
True Declination
-2° 39' 41"
Sunlit
Object was in daylight at TLE epoch
Visualization TLE readout
Latitude
14.7358°
Longitude
113.52057°
Altitude
30,394.717 km
Speed
2.718 km/s
Apparent Right ascension
00h 49m 57s
Apparent Declination
7° 33' 43"
Sunlit
Object is in daylight
Visualization observer readout
Local Sidereal Time
14:50:37
Azimuth
37.43° NE
Elevation
-34.952°
Doppler factor
1
Orbital elements
Apogee altitude
41,986.575 km
Perigee altitude
1,048.028 km
Semi-major axis
27,895.438 km
Eccentricity
0.7337857
Inclination
26.8065°
RAAN
337.4875°
Arg. of periapsis
241.4268°
True anomaly
304.59771°
Mean anomaly
353.3458°
Eccentric anomaly
336.74894°
Mean motion
0.46585 °/min
BSTAR
Unknown
Orbital period
772.79 mins
Loading maneuver chart data...
Loading SW <> Apogee altitude chart data...
Loading historical data...
Loading historical data...
Loading historical data...
Loading historical data...
Loading historical data...
Loading historical data...
Loading historical data...

CZ-3B DEB Visibility forecast

Observer location: undefined°, undefined°

Span
Click to sort rows by Start time (UTC) header in descending order
Start Az.
Max El. time (UTC)
Max El. Az.
Max El.
End time (UTC)
End Az.
417 mins2025-05-09 17:48:45.085Z243.559° WSW2025-05-09 19:45:45.085Z254.396° W28.73°2025-05-10 00:45:45.085Z288.481° WNW
|